Regional Weather Roundup
Issued by NWS

Home | Current Version | Previous Version | Graphics & Text | Print | Product List | Glossary On
Versions: 1 2 3 4 5 6 7 8 9 10 11 12 13 14 15 16 17 18 19 20 21 22 23 24 25 26 27 28 29 30 31 32 33 34 35 36 37 38 39 40 41 42 43 44 45 46 47 48 49 50
000
ASUS43 KFSD 030202
RWRSD

WEATHER ROUNDUP FOR SOUTH DAKOTA
NATIONAL WEATHER SERVICE SIOUX FALLS SD
900 PM CDT TUE JUN 02 2015

NOTE: "FAIR" INDICATES FEW OR NO CLOUDS BELOW 12,000 FEET WITH NO
SIGNIFICANT WEATHER AND/OR OBSTRUCTIONS TO VISIBILITY.


SDZ001>005-009-010-012>017-030300-
NORTHWEST AND NORTH CENTRAL SOUTH DAKOTA

CITY           SKY/WX    TMP DP  RH WIND       PRES   REMARKS
BUFFALO          N/A     65  54  67 NW16      29.82R
FAITH            N/A     73  57  57 NW6       29.81R
MOBRIDGE       MOCLDY    78  66  66 NE6       29.70S
$$

SDZ012>016-024>037-041>051-057-063-072>074-030300-
SOUTHWEST AND SOUTH CENTRAL SOUTH DAKOTA

CITY           SKY/WX    TMP DP  RH WIND       PRES   REMARKS
RAPID CTY ARPT CLOUDY    64  56  75 CALM      29.84F
PIERRE         CLOUDY    75  62  64 NW9       29.72R
CUSTER         PTCLDY    60  52  74 NE8       29.95F
ELLSWORTH AFB  CLOUDY    64  61  88 NW2       29.84F
PHILIP         CLOUDY    74  58  57 N9        29.79R
PINE RIDGE     CLOUDY    66  52  60 NW9       29.80R
WINNER         FAIR      79  64  60 S16       29.74S
$$

SDZ004>011-016>023-039-040-030300-
NORTHEAST SOUTH DAKOTA

CITY           SKY/WX    TMP DP  RH WIND       PRES   REMARKS
ABERDEEN       PTCLDY    80  64  58 SW14      29.68R
WATERTOWN      MOCLDY    74  60  61 S14G25    29.77R
BROOKINGS      PTCLDY    73  61  64 S15       29.81S
SISSETON         N/A     77  62  59 S15       29.72R
$$

SDZ017-020-022-023-036>040-048>070-030300-
SOUTHEAST SOUTH DAKOTA

CITY           SKY/WX    TMP DP  RH WIND       PRES   REMARKS
SIOUX FALLS    MOCLDY    74  61  63 S13       29.82R
HURON          MOCLDY    78  61  55 S16G25    29.73R
CHAMBERLAIN    CLOUDY    76  65  67 S13       29.73S
MITCHELL       MOCLDY    78  63  59 S13G21    29.75S
YANKTON        CLEAR     75  61  60 S13G20    29.81R
$$

ABBREVIATIONS USED IN REMARKS
   TC - TEMPERATURE IN CELSIUS
  WCI - WIND CHILL INDEX
   HX - HEAT INDEX
  VSB - VISIBILITY



USA.gov is the U.S. government's official web portal to all federal, state and local government web resources and services.